Location: Hoover
(45.1124°N, 103.2678°W)
Time: 04:12:08
(UTC+00:00)

N. Korean satellite - Pass Details

Date: 30 November 2020
Orbit: 453 x 502 km, 97.2° (Epoch: 16 January)

Event Time Altitude Azimuth Distance (km) Brightness Sun altitude
Rises 12:25:51 0° 12° (NNE) 2,559 10.2 -18.0°
Reaches altitude 10° 12:27:55 10° 13° (NNE) 1,682 9.3 -17.6°
Maximum altitude 12:31:32 87° 99° (E) 499 6.5 -17.0°
Drops below altitude 10° 12:35:12 10° 192° (SSW) 1,691 9.3 -16.4°
Sets 12:37:16 0° 193° (SSW) 2,575 10.3 -16.0°
